Location: Borea
(45.6167°N, 23.0167°E)
Time: 21:28:49
(UTC+00:00)

NOAA 12 DEB - Visible Passes

Search period start: 27 February 2024 00:00
Search period end: 08 March 2024 00:00
Orbit: 710 x 719 km, 98.2° (Epoch: 27 February)

Date Brightness Start Highest point End Pass type
(mag) Time Alt. Az. Time Alt. Az. Time Alt. Az.
27 Feb ? 18:15:12 59° E 18:15:34 61° ENE 18:20:20 10° N visible
27 Feb ? 19:54:19 16° W 19:54:19 16° W 19:57:01 10° NW visible
28 Feb ? 17:22:59 19° E 17:24:27 22° ENE 17:28:07 10° NNE visible
28 Feb ? 19:02:07 49° W 19:02:07 49° W 19:06:48 10° NNW visible
29 Feb ? 18:09:53 49° ESE 18:10:38 55° ENE 18:15:20 10° N visible
29 Feb ? 19:49:01 18° W 19:49:01 18° W 19:52:17 10° NW visible
01 Mar ? 17:17:38 16° E 17:19:30 20° ENE 17:22:58 10° NNE visible
01 Mar ? 18:56:46 53° WSW 18:57:06 55° W 19:01:50 10° NNW visible
02 Mar ? 18:04:30 41° ESE 18:05:37 50° ENE 18:10:16 10° N visible
02 Mar ? 19:43:37 20° W 19:43:52 20° W 19:47:26 10° NW visible
03 Mar ? 17:12:13 14° E 17:14:30 18° ENE 17:17:45 10° NNE visible
03 Mar ? 18:51:21 55° SW 18:52:00 61° WSW 18:56:47 10° NNW visible
04 Mar ? 17:59:03 34° ESE 18:00:31 44° ENE 18:05:06 10° N visible
04 Mar ? 19:38:10 22° WSW 19:38:42 23° W 19:42:29 10° NW visible
05 Mar ? 17:06:43 11° E 17:09:24 17° ENE 17:12:24 10° NNE visible
05 Mar ? 18:45:51 53° SSW 18:46:50 69° WSW 18:51:39 10° NNW visible
06 Mar ? 17:53:31 28° ESE 17:55:21 40° ENE 17:59:51 10° N visible
06 Mar ? 19:32:38 24° WSW 19:33:28 25° W 19:37:26 10° NW visible
07 Mar ? 17:01:32 10° E 17:04:15 15° ENE 17:06:57 10° NNE visible
07 Mar ? 18:40:17 48° S 18:41:37 77° WSW 18:46:27 10° NNW visible
